Flag for Cabo Verde Weather past 2 weeks in Santa Maria, Cabo Verde

Now
86 °F

Scattered clouds.


Feels Like: 91 °F
Forecast: N/A
Wind: 13 mph from East

Location: Sal

Current Time: Jul 29, 2015 at 1:41:18 PM

Latest Report: Jul 29, 2015 at 1:00 PM


Visibility: N/A

Pressure: 29.95 "Hg

Humidity: 59%

Dew point: 70 °F

Location of Santa MariaLocation

Historic Weather in Santa Maria — Graph

°F

Santa Maria temperature yesterday

Maximum temperature yesterday: 84 °F (at 2:00 PM)
Minimum temperature yesterday: 77 °F (at 12:00 AM)
Average temperature yesterday: 79 °F

Past Weeks' High & Low Weather Summary

 TemperatureHumidityPressure
High88 °F (Jul 17, 1:00 PM)94% (Jul 17, 1:00 AM)30.07 "Hg (Jul 17, 1:00 AM)
Low73 °F (Jul 17, 1:00 AM)38% (Jul 19, 4:00 PM)29.86 "Hg (Jul 24, 4:00 PM)
Average79 °F72%29.96 "Hg
* Reported Jul 14 12:00 Noon — Jul 29 12:00 Noon, Santa Maria, Weather by CustomWeather, © 2015

Note: Actual official high and low records may vary slightly from our data, if they occured in-between our weather recording intervals... More about our weather records

Advertising

Santa Maria weather history for previous 24 hours

 ConditionsComfort  
Time TempWeatherWind HumidityBarometerVisibility
12:00 PM
Wed, Jul 29
84 °FPartly sunny.13 mph62%29.95 "HgN/A
11:00 AM82 °FPartly sunny.12 mph66%29.98 "HgN/A
10:00 AM82 °FPartly sunny.13 mph66%29.98 "HgN/A
9:00 AM81 °FPartly sunny.12 mph70%29.92 "HgN/A
8:00 AM79 °FPassing clouds.9 mph74%29.92 "HgN/A
7:00 AM75 °FScattered clouds.7 mph83%29.92 "HgN/A
6:00 AM75 °FPartly sunny.5 mph83%29.89 "HgN/A
5:00 AM73 °FScattered clouds.5 mph83%29.89 "HgN/A
4:00 AM75 °FPassing clouds.3 mph78%29.89 "HgN/A
3:00 AM75 °FPassing clouds.2 mph78%29.92 "HgN/A
2:00 AM75 °FPassing clouds.3 mph83%29.92 "HgN/A
1:00 AM75 °FPassing clouds.5 mph83%29.95 "HgN/A
12:00 AM77 °FPassing clouds.6 mph79%29.98 "HgN/A
11:00 PM
Tue, Jul 28
77 °FPassing clouds.7 mph74%29.98 "HgN/A
10:00 PM77 °FPassing clouds.8 mph74%29.95 "HgN/A
9:00 PM77 °FPassing clouds.10 mph74%29.92 "HgN/A
8:00 PM77 °FPassing clouds.12 mph74%29.92 "HgN/A
7:00 PM77 °FPassing clouds.12 mph74%29.89 "HgN/A
6:00 PM81 °FPassing clouds.13 mph66%29.89 "HgN/A
5:00 PM81 °FPartly sunny.12 mph66%29.86 "HgN/A
4:00 PM82 °FScattered clouds.13 mph58%29.89 "HgN/A
3:00 PM84 °FPartly sunny.13 mph55%29.89 "HgN/A
2:00 PM84 °FPartly sunny.13 mph58%29.89 "HgN/A
1:00 PM82 °FPartly sunny.13 mph62%29.92 "HgN/A
Weather by CustomWeather, © 2015

See weather overviewHow to use our weather pages